DLH119 EDDM-EDDF

Flight info

Callsign DLH119
Flight time 0h 36m
Altitude 24000
Route GIVMI6S GIVMI Y101 ERNAS T161 DEBHI DEBHI1B
Aircraft A20N/M-SDE2E3FGHIRWXY/LB1

Departure

Time 2026-05-06 19:33
Airport Munich Airport (EDDM)

Arrival

Time 2026-05-06 20:10
Airport Frankfurt Main Airport (EDDF)
Time Latitude Longitude Altitude Speed Heading
2026-05-06 19:08 48.35248 11.79773 1462 ft 0 kts 84°
2026-05-06 19:20 48.35247 11.79762 1464 ft 3 kts 84°
2026-05-06 19:20 48.35244 11.79727 1465 ft 3 kts 84°
2026-05-06 19:21 48.35242 11.79690 1458 ft 3 kts 95°
2026-05-06 19:21 48.35249 11.79656 1461 ft 3 kts 128°
2026-05-06 19:21 48.35267 11.79632 1459 ft 3 kts 155°
2026-05-06 19:21 48.35290 11.79621 1460 ft 3 kts 169°
2026-05-06 19:22 48.35305 11.79618 1464 ft 0 kts 174°
2026-05-06 19:24 48.35285 11.79614 1467 ft 7 kts 195°
2026-05-06 19:24 48.35287 11.79555 1458 ft 8 kts 328°
2026-05-06 19:24 48.35306 11.79548 1462 ft 0 kts 354°
2026-05-06 19:26 48.35319 11.79541 1460 ft 5 kts 331°
2026-05-06 19:26 48.35373 11.79470 1474 ft 15 kts 342°
2026-05-06 19:26 48.35490 11.79453 1467 ft 18 kts 12°
2026-05-06 19:27 48.35620 11.79494 1467 ft 20 kts 353°
2026-05-06 19:27 48.35764 11.79469 1465 ft 22 kts 353°
2026-05-06 19:27 48.35898 11.79474 1458 ft 18 kts 32°
2026-05-06 19:27 48.35990 11.79499 1461 ft 10 kts 353°
2026-05-06 19:28 48.36005 11.79497 1461 ft 0 kts 353°
2026-05-06 19:29 48.36023 11.79494 1460 ft 5 kts 353°
2026-05-06 19:29 48.36070 11.79485 1460 ft 9 kts 353°
2026-05-06 19:29 48.36140 11.79473 1464 ft 12 kts 353°
2026-05-06 19:29 48.36216 11.79521 1466 ft 14 kts 69°
2026-05-06 19:30 48.36231 11.79686 1468 ft 20 kts 83°
2026-05-06 19:30 48.36253 11.79989 1467 ft 34 kts 83°
2026-05-06 19:30 48.36282 11.80364 1463 ft 38 kts 84°
2026-05-06 19:30 48.36314 11.80774 1461 ft 40 kts 83°
2026-05-06 19:31 48.36346 11.81194 1467 ft 42 kts 84°
2026-05-06 19:31 48.36380 11.81633 1458 ft 38 kts 84°
2026-05-06 19:31 48.36411 11.82011 1456 ft 10 kts 20°
2026-05-06 19:32 48.36487 11.82004 1462 ft 13 kts 353°
2026-05-06 19:32 48.36584 11.81985 1461 ft 16 kts 352°
2026-05-06 19:32 48.36667 11.81892 1460 ft 17 kts 280°
2026-05-06 19:32 48.36649 11.81588 1467 ft 51 kts 263°
2026-05-06 19:33 48.36584 11.80748 1466 ft 107 kts 265°
2026-05-06 19:33 48.36496 11.79462 1718 ft 127 kts 263°
2026-05-06 19:33 48.36409 11.78177 2343 ft 124 kts 263°
2026-05-06 19:33 48.36324 11.76898 2955 ft 121 kts 266°
2026-05-06 19:34 48.36257 11.75625 3425 ft 129 kts 267°
2026-05-06 19:34 48.36201 11.74203 3767 ft 144 kts 268°
2026-05-06 19:34 48.36155 11.72622 4185 ft 160 kts 269°
2026-05-06 19:34 48.36117 11.70832 4652 ft 181 kts 269°
2026-05-06 19:35 48.36075 11.68844 5160 ft 203 kts 272°
2026-05-06 19:35 48.36357 11.66678 5882 ft 219 kts 289°
2026-05-06 19:35 48.37060 11.64637 6804 ft 226 kts 295°
2026-05-06 19:35 48.37886 11.62495 7456 ft 248 kts 297°
2026-05-06 19:36 48.38841 11.60175 8152 ft 267 kts 298°
2026-05-06 19:36 48.39837 11.57817 9218 ft 270 kts 297°
2026-05-06 19:36 48.40846 11.55390 10273 ft 273 kts 296°
2026-05-06 19:36 48.41849 11.52929 11164 ft 282 kts 296°
2026-05-06 19:37 48.42864 11.50381 12042 ft 290 kts 295°
2026-05-06 19:37 48.43903 11.47724 12951 ft 296 kts 296°
2026-05-06 19:37 48.45013 11.45103 13946 ft 301 kts 302°
2026-05-06 19:37 48.46605 11.42941 14809 ft 316 kts 326°
2026-05-06 19:38 48.48702 11.41787 15582 ft 330 kts 345°
2026-05-06 19:38 48.51054 11.41197 15884 ft 355 kts 350°
2026-05-06 19:38 48.53582 11.40716 16164 ft 377 kts 351°
2026-05-06 19:38 48.56212 11.40165 16735 ft 387 kts 349°
2026-05-06 19:39 48.58909 11.39520 17542 ft 392 kts 349°
2026-05-06 19:39 48.61596 11.38820 18197 ft 399 kts 349°
2026-05-06 19:39 48.64345 11.38072 18912 ft 401 kts 348°
2026-05-06 19:39 48.67117 11.37294 19637 ft 405 kts 346°
2026-05-06 19:40 48.69827 11.36057 20251 ft 410 kts 336°
2026-05-06 19:40 48.72374 11.34150 20922 ft 412 kts 326°
2026-05-06 19:40 48.74781 11.31734 21510 ft 418 kts 323°
2026-05-06 19:40 48.77226 11.29243 21686 ft 435 kts 324°
2026-05-06 19:41 48.79800 11.26638 21870 ft 451 kts 324°
2026-05-06 19:41 48.82468 11.23937 22040 ft 466 kts 324°
2026-05-06 19:41 48.85083 11.20998 22324 ft 474 kts 318°
2026-05-06 19:41 48.87542 11.17606 22862 ft 478 kts 315°
2026-05-06 19:42 48.90013 11.14165 23270 ft 481 kts 316°
2026-05-06 19:42 48.92491 11.10730 23532 ft 483 kts 316°
2026-05-06 19:42 48.94961 11.07302 23769 ft 485 kts 315°
2026-05-06 19:42 48.97474 11.03803 24275 ft 487 kts 315°
2026-05-06 19:43 48.99953 11.00338 24679 ft 491 kts 315°
2026-05-06 19:43 49.02496 10.96777 25108 ft 494 kts 315°
2026-05-06 19:43 49.05019 10.93238 25628 ft 491 kts 314°
2026-05-06 19:43 49.07510 10.89739 25827 ft 488 kts 314°
2026-05-06 19:44 49.09986 10.86252 25868 ft 475 kts 314°
2026-05-06 19:44 49.12396 10.82850 25879 ft 470 kts 314°
2026-05-06 19:44 49.14777 10.79474 25870 ft 473 kts 314°
2026-05-06 19:44 49.17199 10.76038 25870 ft 472 kts 314°
2026-05-06 19:45 49.19615 10.72605 25874 ft 472 kts 314°
2026-05-06 19:45 49.21953 10.69145 25839 ft 471 kts 311°
2026-05-06 19:45 49.24233 10.65538 25842 ft 470 kts 310°
2026-05-06 19:45 49.26495 10.61900 25844 ft 471 kts 310°
2026-05-06 19:46 49.28772 10.58248 25840 ft 472 kts 310°
2026-05-06 19:46 49.30999 10.54700 25708 ft 461 kts 310°
2026-05-06 19:46 49.33213 10.51188 25260 ft 453 kts 310°
2026-05-06 19:46 49.35392 10.47698 24588 ft 449 kts 308°
2026-05-06 19:47 49.37311 10.43975 23934 ft 442 kts 301°
2026-05-06 19:47 49.39062 10.40101 23256 ft 439 kts 301°
2026-05-06 19:47 49.40793 10.36308 22611 ft 433 kts 301°
2026-05-06 19:47 49.42501 10.32575 22002 ft 427 kts 301°
2026-05-06 19:48 49.44200 10.28848 21420 ft 420 kts 302°
2026-05-06 19:48 49.45865 10.25186 20812 ft 415 kts 302°
2026-05-06 19:48 49.47506 10.21571 20336 ft 409 kts 302°
2026-05-06 19:48 49.49124 10.18001 19958 ft 409 kts 302°
2026-05-06 19:49 49.50750 10.14408 19597 ft 408 kts 302°
2026-05-06 19:49 49.52368 10.10831 19231 ft 404 kts 302°
2026-05-06 19:49 49.53969 10.07286 18870 ft 399 kts 302°
2026-05-06 19:49 49.55521 10.03847 18568 ft 393 kts 302°
2026-05-06 19:50 49.57070 10.00406 18274 ft 392 kts 302°
2026-05-06 19:50 49.58631 9.96935 17980 ft 391 kts 302°
2026-05-06 19:50 49.60185 9.93479 17663 ft 389 kts 302°
2026-05-06 19:50 49.61702 9.90092 17363 ft 387 kts 303°
2026-05-06 19:51 49.63233 9.86672 17088 ft 385 kts 303°
2026-05-06 19:51 49.64748 9.83288 16828 ft 384 kts 303°
2026-05-06 19:51 49.66271 9.79882 16565 ft 382 kts 303°
2026-05-06 19:51 49.67779 9.76503 16305 ft 380 kts 303°
2026-05-06 19:52 49.69262 9.73179 16050 ft 379 kts 303°
2026-05-06 19:52 49.70755 9.69827 15761 ft 376 kts 303°
2026-05-06 19:52 49.72239 9.66492 15289 ft 373 kts 303°
2026-05-06 19:52 49.73694 9.63216 14716 ft 369 kts 303°
2026-05-06 19:53 49.75123 9.59994 14321 ft 366 kts 303°
2026-05-06 19:53 49.76562 9.56746 13964 ft 361 kts 303°
2026-05-06 19:53 49.77968 9.53569 13602 ft 352 kts 303°
2026-05-06 19:53 49.79338 9.50473 13203 ft 344 kts 302°
2026-05-06 19:54 49.80662 9.47474 12808 ft 336 kts 302°
2026-05-06 19:54 49.81972 9.44504 12411 ft 330 kts 302°
2026-05-06 19:54 49.83259 9.41582 11897 ft 323 kts 302°
2026-05-06 19:54 49.84491 9.38782 11433 ft 313 kts 302°
2026-05-06 19:55 49.85636 9.35968 11174 ft 303 kts 296°
2026-05-06 19:55 49.86513 9.33053 10926 ft 293 kts 289°
2026-05-06 19:55 49.87133 9.30108 10824 ft 279 kts 284°
2026-05-06 19:55 49.87654 9.27332 10824 ft 263 kts 284°
2026-05-06 19:56 49.88165 9.24678 10818 ft 247 kts 284°
2026-05-06 19:56 49.88641 9.22215 10833 ft 238 kts 284°
2026-05-06 19:56 49.89121 9.19711 10828 ft 242 kts 284°
2026-05-06 19:56 49.89593 9.17239 10832 ft 240 kts 284°
2026-05-06 19:57 49.90069 9.14737 10815 ft 241 kts 284°
2026-05-06 19:57 49.90539 9.12269 10814 ft 240 kts 284°
2026-05-06 19:57 49.91011 9.09787 10728 ft 237 kts 284°
2026-05-06 19:57 49.91469 9.07374 10517 ft 234 kts 284°
2026-05-06 19:58 49.91931 9.04937 10207 ft 233 kts 284°
2026-05-06 19:58 49.92390 9.02512 9900 ft 232 kts 284°
2026-05-06 19:58 49.92837 9.00147 9598 ft 231 kts 284°
2026-05-06 19:58 49.93297 8.97704 9504 ft 253 kts 284°
2026-05-06 19:59 49.93856 8.94911 9360 ft 277 kts 292°
2026-05-06 19:59 49.94992 8.92537 9243 ft 282 kts 318°
2026-05-06 19:59 49.96743 8.91138 9130 ft 289 kts 343°
2026-05-06 19:59 49.98776 8.90935 9013 ft 293 kts
2026-05-06 20:00 50.00787 8.91273 8881 ft 295 kts 13°
2026-05-06 20:00 50.02628 8.92697 8633 ft 296 kts 38°
2026-05-06 20:00 50.03900 8.95159 8221 ft 296 kts 64°
2026-05-06 20:00 50.04416 8.97135 7935 ft 296 kts 70°
2026-05-06 20:01 50.05081 9.00167 7537 ft 294 kts 72°
2026-05-06 20:01 50.05708 9.03198 7141 ft 292 kts 73°
2026-05-06 20:01 50.06544 9.07156 6595 ft 291 kts 70°
2026-05-06 20:01 50.07144 9.09073 6324 ft 291 kts 57°
2026-05-06 20:02 50.08499 9.11324 5943 ft 287 kts 35°
2026-05-06 20:02 50.10274 9.12670 5567 ft 281 kts 13°
2026-05-06 20:02 50.12187 9.12762 5249 ft 271 kts 343°
2026-05-06 20:02 50.13754 9.11395 4991 ft 256 kts 310°
2026-05-06 20:03 50.14556 9.09002 4774 ft 244 kts 284°
2026-05-06 20:03 50.14980 9.06494 4544 ft 238 kts 278°
2026-05-06 20:03 50.14831 9.03987 4338 ft 230 kts 253°
2026-05-06 20:03 50.14277 9.01697 4149 ft 224 kts 250°
2026-05-06 20:04 50.13735 8.99447 4005 ft 215 kts 250°
2026-05-06 20:04 50.13226 8.97312 3968 ft 211 kts 251°
2026-05-06 20:04 50.12715 8.95214 3938 ft 201 kts 250°
2026-05-06 20:04 50.12219 8.93161 3920 ft 202 kts 252°
2026-05-06 20:05 50.11751 8.91098 3913 ft 205 kts 251°
2026-05-06 20:05 50.11247 8.89001 3902 ft 205 kts 251°
2026-05-06 20:05 50.10762 8.86921 3864 ft 207 kts 251°
2026-05-06 20:05 50.10244 8.84817 3749 ft 205 kts 250°
2026-05-06 20:06 50.09734 8.82765 3636 ft 200 kts 251°
2026-05-06 20:06 50.09287 8.80767 3453 ft 195 kts 253°
2026-05-06 20:06 50.08830 8.78812 3240 ft 186 kts 251°
2026-05-06 20:06 50.08385 8.76971 2979 ft 182 kts 252°
2026-05-06 20:07 50.07935 8.75124 2696 ft 180 kts 252°
2026-05-06 20:07 50.07494 8.73338 2451 ft 177 kts 252°
2026-05-06 20:07 50.07067 8.71542 2207 ft 175 kts 253°
2026-05-06 20:07 50.06654 8.69812 1969 ft 167 kts 253°
2026-05-06 20:08 50.06265 8.68174 1766 ft 151 kts 252°
2026-05-06 20:08 50.05928 8.66735 1537 ft 132 kts 253°
2026-05-06 20:08 50.05631 8.65433 1327 ft 129 kts 255°
2026-05-06 20:08 50.05472 8.64068 1130 ft 127 kts 266°
2026-05-06 20:09 50.05359 8.62684 974 ft 132 kts 262°
2026-05-06 20:09 50.05137 8.61303 814 ft 131 kts 255°
2026-05-06 20:09 50.04821 8.59999 631 ft 127 kts 253°
2026-05-06 20:09 50.04516 8.58724 427 ft 126 kts 253°
2026-05-06 20:10 50.04237 8.57523 370 ft 98 kts 250°
2026-05-06 20:10 50.04065 8.56824 367 ft 41 kts 250°
2026-05-06 20:10 50.04078 8.56701 363 ft 10 kts 359°
2026-05-06 20:10 50.04134 8.56742 365 ft 8 kts 29°
2026-05-06 20:11 50.04188 8.56776 364 ft 8 kts 15°
2026-05-06 20:11 50.04230 8.56744 363 ft 8 kts 282°
2026-05-06 20:11 50.04214 8.56646 365 ft 11 kts 249°
2026-05-06 20:11 50.04183 8.56515 363 ft 15 kts 250°
2026-05-06 20:12 50.04146 8.56357 366 ft 17 kts 253°
2026-05-06 20:12 50.04179 8.56277 365 ft 7 kts 337°
2026-05-06 20:12 50.04237 8.56241 365 ft 11 kts 341°
2026-05-06 20:12 50.04291 8.56165 365 ft 11 kts 270°
2026-05-06 20:13 50.04330 8.56064 363 ft 13 kts 337°
2026-05-06 20:13 50.04422 8.56039 365 ft 15 kts 26°
2026-05-06 20:13 50.04470 8.56193 363 ft 18 kts 69°
2026-05-06 20:13 50.04514 8.56374 369 ft 9 kts 70°
2026-05-06 20:14 50.04533 8.56453 366 ft 7 kts 69°
2026-05-06 20:14 50.04511 8.56527 363 ft 8 kts 159°
2026-05-06 20:14 50.04481 8.56539 363 ft 3 kts 166°
2026-05-06 20:14 50.04479 8.56539 363 ft 0 kts 166°